Overview Statistics Trail Chart Weather Telemetry Raw packets
 

This is the latest recevied weather packets stored in our database for station/object HG8LXL-2. If no packets are shown the sender has not sent any weather packets the latest 10 day(s).

<< 1 2 3 4 5 6 7 >>
Time Temp. Humidity Pressure Rain* Wind** Luminosity Snow
1788430263 32.78° C 18% 1014.9 hPa - - - -
1788429952 32.78° C 19% 1014.8 hPa - - - -
1788429652 32.22° C 18% 1015.1 hPa - - - -
1788429352 32.22° C 17% 1015 hPa - - - -
1788429052 32.78° C 18% 1015 hPa - - - -
1788428752 32.22° C 19% 1015.1 hPa - - - -
1788428452 33.33° C 19% 1015.1 hPa - - - -
1788428152 33.33° C 17% 1015.2 hPa - - - -
1788427855 32.78° C 19% 1015.2 hPa - - - -
1788427552 32.22° C 19% 1015.1 hPa - - - -
1788427252 31.67° C 19% 1015.2 hPa - - - -
1788426966 32.22° C 18% 1015.4 hPa - - - -
1788426652 32.22° C 19% 1015.3 hPa - - - -
1788426352 31.67° C 19% 1015.4 hPa - - - -
1788426052 31.67° C 19% 1015.5 hPa - - - -
1788425752 31.11° C 21% 1015.6 hPa - - - -
1788425452 31.67° C 20% 1015.5 hPa - - - -
1788425152 31.11° C 21% 1015.7 hPa - - - -
1788424852 31.11° C 21% 1015.8 hPa - - - -
1788424552 31.11° C 21% 1015.7 hPa - - - -
1788424252 30.56° C 22% 1015.8 hPa - - - -
1788423952 31.11° C 22% 1015.8 hPa - - - -
1788423652 30.56° C 22% 1015.8 hPa - - - -
1788423352 30° C 23% 1015.9 hPa - - - -
1788423052 30° C 23% 1016 hPa - - - -

* Rain since midnight (hover to see other rain measurements)
** Current wind speed in m/s (hover to see current wind gust speed)